RS-38S
1 57189U 23091Z   26208.58665298  .00017446  00000-0  48016-3 0  9996
2 57189  97.5075 278.9111 0005209 283.6631  76.4033 15.37222650170890
SONATE-2
1 59112U 24043Q   26208.22316400  .00047291  00000-0  54648-3 0  9990
2 59112  97.5561   1.1774 0006073  64.9454 295.2433 15.61737721134131
GRBBeta
1 60237U 24128C   26208.63505263  .00004167  00000-0  28826-3 0  9990
2 60237  61.9900  74.3289 0035313 143.5062 216.8448 15.06885113112368
Curium One
1 60242U 24128H   26208.16035348  .00008224  00000-0  46860-3 0  9992
2 60242  61.9787  64.1420 0034875 138.9696 221.4034 15.13018686112504
ROBUSTA-3A
1 60243U 24128J   26208.61102121  .00008787  00000-0  51136-3 0  9993
2 60243  61.9866  65.2430 0036349 136.7219 223.6742 15.12148165112539
CatSat
1 60246U 24125J   26208.58424917  .00076393  00000-0  80379-3 0  9998
2 60246  97.2048  61.7550 0018109  38.3122 321.9420 15.63851495113690
HYPERVIEW-1G (RS66S)
1 61772U 24199AP  26208.59173631  .00496885  97863-4  15216-2 0  9995
2 61772  97.2760  90.7520 0008151 135.1884 225.0050 15.91832809141066
AO-123
1 61781U 24199AY  26208.62234253  .00008086  00000-0  23063-3 0  9992
2 61781  97.2948  76.9324 0014360 156.3261 203.8647 15.36212607140135
JINJUSat 1B
1 63210U 25052A   26208.52108630  .00018263  00000-0  54465-3 0  9996
2 63210  97.3958 105.3545 0001517 344.6492  15.4705 15.34704147 76285
NUSHSAT 1
1 63211U 25052B   26208.23554798  .00021968  00000-0  59891-3 0  9999
2 63211  97.3930 105.7803 0001456  11.8591 348.2688 15.37477681 76293
TEVEL2-4
1 63213U 25052D   26208.20046728  .00020041  00000-0  57403-3 0  9995
2 63213  97.3851 104.6857 0002085  30.6703 329.4663 15.35954659 76250
TEVEL2-5
1 63214U 25052E   26208.22572217  .00019518  00000-0  56262-3 0  9994
2 63214  97.3850 104.6472 0002290  32.3645 327.7739 15.35761076 76259
TEVEL2-6
1 63215U 25052F   26208.23897430  .00019211  00000-0  55444-3 0  9994
2 63215  97.3858 104.6452 0002209  33.5282 326.6102 15.35725425 76256
TEVEL2-1
1 63217U 25052H   26208.21738020  .00018953  00000-0  55724-3 0  9996
2 63217  97.3828 104.1985 0002997  34.0260 326.1175 15.35142068 76236
TEVEL2-3
1 63218U 25052J   26208.21044189  .00019179  00000-0  56270-3 0  9991
2 63218  97.3834 104.2192 0002794  39.4632 320.6814 15.35207308 76230
TEVEL2-2
1 63219U 25052K   26208.15223727  .00018754  00000-0  55128-3 0  9991
2 63219  97.3829 104.1363 0002979  35.0050 325.1389 15.35150730 76227
TEVEL2-9
1 63237U 25052AD  26208.50894344  .00017643  00000-0  55354-3 0  9996
2 63237  97.3893 103.7786 0006259  21.3432 338.8070 15.33081855 76204
TEVEL2-7
1 63238U 25052AE  26208.16628216  .00016860  00000-0  53474-3 0  9993
2 63238  97.3891 103.3347 0006414  22.3817 337.7704 15.32744834 76140
TEVEL2-8
1 63239U 25052AF  26208.24019908  .00017168  00000-0  54462-3 0  9995
2 63239  97.3894 103.3841 0006396  22.1923 337.9594 15.32733882 76159
SPIRONE
1 66657U 25274H   26208.24961354  .00001919  00000-0  18664-3 0  9990
2 66657  97.7469 136.9710 0010524 237.3421 122.6784 14.93694262 36202
K-HERO
1 66660U 25274L   26208.24318830  .00001771  00000-0  17091-3 0  9998
2 66660  97.7479 137.1549 0012336 242.8636 117.1327 14.94099521 36213
SNUGLITE-III DURI
1 66661U 25274M   26208.23011249  .00001925  00000-0  18515-3 0  9995
2 66661  97.7475 137.1630 0012974 243.9724 116.0160 14.94123662 36216
SAKHACUBE-CHOLBON
1 67290U 25313AU  26208.18003534  .00009467  00000-0  37552-3 0  9991
2 67290  97.3921 282.7288 0008643 204.1620 155.9214 15.25549521 32078
RS95S (QMR-KWT-2)
1 67291U 25313AV  26208.19312125  .00013997  00000-0  52592-3 0  9996
2 67291  97.3922 283.0089 0008476 200.8616 159.2278 15.27254224 32099
Ten-Koh2
1 68261U 25241B   26207.48913825  .00007213  00000-0  30453-3 0  9995
2 68261  51.6557 132.5239 0004880 268.3089  91.7330 15.24287706 20901
JACK-002
1 68417U 26067B   26208.13106787  .00006583  00000-0  31013-3 0  9991
2 68417  97.4582 166.2459 0003822 113.7346 246.4290 15.19840690 18016
DISCO 2
1 68431U 26067R   26208.35673910  .00008701  00000-0  41133-3 0  9996
2 68431  97.4620 166.4596 0002037 151.3659 208.7688 15.19629589 18048
HADES-SA (SpinnyONE)
1 68446U 26067AG  26208.32048383  .00019161  00000-0  88187-3 0  9991
2 68446  97.4415 166.0570 0004308 311.9002  48.1865 15.20355710 18028
PARUS-6U1
1 68456U 26067AS  26207.87861407  .00005743  00000-0  28655-3 0  9996
2 68456  97.4573 165.6477 0003627 295.6055  64.4804 15.17900232 17950
SAL-E
1 68458U 26067AU  26207.86583761  .00007648  00000-0  37618-3 0  9996
2 68458  97.4499 165.5506 0003905 311.1756  48.9141 15.18286015 17950
FSI-SAT 2
1 68792U 26088A   26208.39103032  .00003606  00000-0  24368-3 0  9996
2 68792  97.5109 356.6596 0013418 336.0532  24.0070 15.07119511 14340
OrigamiSat 2
1 68795U 26088D   26208.40859688  .00011502  00000-0  71845-3 0  9992
2 68795  97.5111 356.9452 0013377 302.2679  57.7253 15.09555183 14360
ARICA 2
1 68796U 26088E   26208.29082232  .00004777  00000-0  30786-3 0  9998
2 68796  97.5105 356.7806 0014243 303.8679  56.1194 15.08709078 14343
WASEDA-SAT-ZERO-II
1 68797U 26088F   26208.61076434  .00006202  00000-0  39488-3 0  9995
2 68797  97.5104 357.1177 0013865 302.2129  57.7755 15.09046196 14392
MANGARO-II-Piscus
1 68798U 26088G   26207.93634446  .00003493  00000-0  22400-3 0  9998
2 68798  97.5113 356.4962 0017492 307.8882  52.0765 15.09034727 14299
IO-86
1 40931U          25360.30710720  .00000000  00000-0  12800-3 0    00
2 40931   6.0006 332.5373 0012733 338.8432   8.1437 14.79075515    01
LILIUM-4                
1 71922C 26067AC  26089.50133053 -.00014632  00000+0 -74472-3 0    04
2 71922  97.4497  49.1617 0004341   5.9603 355.7042 15.16896692    16
